Заводской

Россия / Ростовская область     48°24′11″N   40°16′48″E
темп.,
°C
ветер,
м/с
пор.,
м/с
влажн.,
%
обл.,
%
осадки,
мм/ч
давл.,
гПа
погр.,
м
9 мая, вс
вс900:00+13зюз2292100 2.1 100835
03:00+11сз81291100 2.9 1010597
06:00+8ссз71290100 1.1 1011638
09:00+6ссз81390100 8.3 1013744
12:00+10ссз81068100 0.3 10141271
15:00+10ссз91163100 0.3 10161521
18:00+9с71266100 0.1 10181288
21:00+8сз5116348 0.1 1020703
10 мая, пн
пн1000:00+7сз61170100 0.0 1020595
03:00+6сз61178100 0.0 1020472
06:00+6сз71375100 0.0 1020637
09:00+7ссз81278100 0.3 10181206
12:00+7ссз61089100 3.0 10181073
15:00+7сз71393100 6.4 10161132
18:00+7ссз71394100 5.4 1013738
21:00+9ссз71596100 12.8 1009762
11 мая, вт
вт1100:00+8в71197100 2.8 1009610
03:00+7в61093100 2.8 1012658
06:00+7всв61192100 0.1 1014782
09:00+7всв81190100 0.4 1015947
12:00+6вюв101393100 0.4 10171150
15:00+8вюв111991100 3.6 10181573
18:00+8вюв101789100 2.1 10201206
21:00+8вюв71390100 2.4 1021659
12 мая, ср
ср1200:00+7вюв489321 0.0 1021338
03:00+6в349589 0.0 102182
06:00+7в389099 0.0 1020287
09:00+13вюв6106957 0.0 1020726
12:00+17вюв81054100 0.0 10191688
15:00+18вюв7953100 0.0 10181556
18:00+16вюв586413 0.0 1018847
21:00+12в35784 0.0 101866
13 мая, чт
чт1300:00+11вюв33735 0.0 101726
03:00+10в227418 0.0 101719
06:00+11вюв35760 0.0 1017108
09:00+17вюв4659100 0.0 1017502
12:00+21юв565073 0.0 10161156
15:00+22юв674933 0.0 10161259
18:00+21вюв5963100 0.0 1016439
21:00+16вюв3477100 0.0 101652